Theta_e
307 307 307 307 307 306 306 306 305 305 304 304 303 303 302 302 302 302 302 303 301 300 304 304 303 298 298 295 294 294 295 294 294 295 297 298 300 302 308 310 311 314 314 315 317 318 317
307 307 307 307 306 306 306 306 305 304 304 303 302 301 302 302 301 300 301 301 302 303 301 297 294 294 297 295 293 292 293 294 293 293 293 296 297 299 301 305 309 311 313 313 313 316 318
307 306 306 306 306 306 306 305 304 304 303 301 301 301 301 301 300 296 296 298 296 299 298 292 295 298 298 293 292 292 293 293 292 292 294 294 296 297 302 304 304 306 310 310 312 313 314
307 306 306 306 306 306 306 305 304 303 301 300 300 301 300 297 298 294 294 293 293 294 294 292 293 297 294 291 292 292 292 292 292 292 293 294 295 297 299 301 303 305 308 313 312 313 313
306 306 306 306 305 305 305 305 304 303 302 300 299 299 299 294 294 294 294 293 294 292 292 292 292 295 291 291 292 292 291 291 292 293 295 295 296 299 300 302 304 307 308 312 311 312 313
306 306 305 305 305 305 305 305 302 303 302 301 299 297 296 293 294 294 295 296 295 294 292 291 292 292 292 292 291 292 291 292 293 295 298 298 298 298 299 301 302 308 308 309 311 314 314
305 305 305 305 305 304 304 303 298 297 296 298 296 293 296 292 293 294 295 296 296 297 293 292 291 291 292 291 291 291 291 292 294 296 296 298 300 299 299 299 300 302 304 307 311 309 312
305 305 304 304 304 304 303 299 299 296 294 293 293 292 295 294 292 294 295 296 294 294 295 292 292 292 291 291 291 292 291 292 294 295 296 297 298 297 297 298 300 301 302 305 306 308 310
304 304 304 304 304 302 297 296 299 300 294 293 292 292 292 292 292 291 294 292 295 294 294 292 292 292 292 291 291 291 291 292 294 295 296 297 297 297 297 298 300 301 303 304 305 310 310
304 303 303 303 303 303 298 294 294 296 294 294 292 292 292 292 292 290 291 293 296 295 293 291 291 292 291 292 291 291 291 291 293 294 295 296 296 297 298 297 300 302 302 304 305 307 310
303 302 301 301 302 302 300 296 294 294 294 293 292 292 292 291 291 291 290 295 295 292 295 292 291 291 292 291 291 291 291 291 292 292 295 295 296 297 296 297 298 301 301 306 306 308 309
302 300 299 298 299 298 300 296 294 293 293 293 292 292 292 291 291 290 290 293 292 294 294 291 291 291 291 291 291 291 291 291 291 291 292 293 294 296 295 296 298 296 301 306 308 309 308
302 300 297 298 296 296 296 297 294 293 293 293 293 292 292 291 291 291 290 291 294 292 291 291 290 291 290 290 290 290 291 292 291 292 293 292 295 294 294 295 295 295 307 309 308 308 306
301 299 295 294 294 294 294 296 294 292 293 293 293 292 291 291 291 292 291 294 292 290 290 291 290 290 290 290 290 290 290 291 290 291 292 293 296 294 293 296 294 297 300 306 305 308 308
298 297 294 293 293 293 293 293 293 292 293 293 293 293 291 292 292 292 294 292 292 291 290 290 290 290 290 290 289 290 290 290 290 291 291 292 294 293 293 294 293 296 301 296 303 305 308
298 298 294 293 293 292 292 293 293 292 292 293 293 292 292 291 291 292 293 291 291 290 290 290 290 289 289 290 290 290 290 290 290 290 291 292 294 293 293 293 293 293 293 302 304 310 310
296 299 296 293 293 292 292 292 292 292 292 293 292 294 292 291 291 293 293 291 291 290 290 290 290 289 289 289 289 290 290 290 289 289 291 291 291 293 292 293 294 293 293 294 295 302 308
295 297 296 293 292 292 292 292 292 292 292 292 292 295 291 291 293 291 291 290 290 290 290 290 290 289 289 289 289 289 290 289 289 290 291 291 291 293 292 292 292 293 293 293 301 299 297
295 297 296 294 293 292 292 292 292 292 292 292 293 292 291 292 292 291 289 290 290 290 290 290 290 289 289 289 289 287 289 289 289 290 291 291 292 294 293 292 292 292 293 292 295 296 295
295 295 297 295 294 292 292 292 292 292 292 292 293 295 292 290 289 291 290 290 290 289 290 289 289 289 288 288 287 288 288 289 288 289 290 289 291 292 294 293 292 292 292 291 293 295 294
295 295 295 296 295 293 292 292 292 292 292 292 292 293 289 292 291 289 290 289 290 290 289 288 289 288 288 287 287 287 288 288 288 287 286 285 290 288 289 289 291 291 291 291 291 291 293
296 295 295 295 296 294 295 292 292 292 292 291 295 294 288 291 289 289 289 290 289 290 289 289 289 289 285 286 288 287 285 285 287 287 286 284 289 287 289 288 289 291 290 290 290 289 291
296 295 295 295 297 294 295 295 292 293 292 292 289 288 293 289 290 290 291 290 290 289 290 289 289 288 283 285 286 286 286 286 286 286 286 286 285 287 290 287 289 292 289 290 290 289 288
298 295 295 295 296 296 294 295 294 294 293 290 289 288 294 296 291 292 290 289 290 290 289 287 286 286 287 285 284 283 284 285 285 286 285 285 281 283 290 288 291 290 288 288 289 289 288
299 297 295 295 295 295 294 295 295 294 294 293 290 289 291 296 290 291 289 290 288 285 289 288 288 286 284 285 288 289 288 287 286 286 283 280 282 289 291 290 288 289 288 289 289 291 288
300 299 296 296 295 295 295 295 295 296 296 294 291 290 288 293 296 289 291 288 291 290 288 285 284 282 283 287 288 290 290 287 290 288 281 279 276 288 289 290 290 290 287 285 287 292 287
299 299 298 296 295 295 296 294 294 296 295 294 292 291 288 292 290 288 292 291 285 286 290 286 285 285 282 288 289 289 289 284 290 286 288 288 287 287 287 290 289 287 285 286 291 293 287
301 299 299 296 296 295 296 295 295 295 295 295 294 291 291 291 291 286 287 286 284 286 291 284 286 284 288 290 289 288 287 286 284 286 287 288 290 287 283 288 289 285 285 289 290 286 286
309 303 300 298 295 295 295 296 295 295 296 295 294 292 291 290 292 286 286 287 286 286 288 279 287 285 287 288 284 283 287 282 284 290 283 288 289 290 287 290 285 285 287 286 283 286 286
Wind_Speed
19 19 20 20 20 21 21 21 21 21 22 22 23 23 23 18 17 15 15 16 11 15 16 15 12 9 3 8 11 23 19 23 14 16 13 12 9 3 10 8 17 21 21 15 17 18 9
18 19 19 20 21 21 21 21 21 21 22 23 25 23 22 17 17 13 12 13 5 9 17 18 21 11 1 5 19 23 17 23 24 21 18 16 10 8 9 8 13 9 15 24 19 16 19
18 19 19 20 21 21 21 21 21 22 23 24 26 25 22 16 16 9 8 11 12 10 11 29 15 5 4 10 27 25 16 23 26 26 16 23 16 13 2 7 4 12 22 19 19 22 15
17 18 19 20 21 22 21 20 20 22 24 25 27 25 22 17 16 8 6 13 15 12 10 30 20 6 5 24 26 23 23 38 34 27 13 18 14 12 16 9 11 6 8 9 14 23 14
17 18 19 20 21 22 21 20 20 20 23 26 28 27 22 18 15 14 4 7 5 26 7 10 33 5 8 31 36 22 29 29 34 13 12 6 12 7 6 12 10 8 8 16 17 19 21
17 18 19 20 21 22 22 20 20 20 23 25 29 28 21 17 16 16 1 10 1 10 19 4 26 3 21 23 23 24 36 29 12 13 1 4 7 7 7 8 11 6 6 11 23 13 23
18 19 20 20 21 21 22 22 21 21 25 26 30 29 20 11 15 15 4 2 3 2 12 10 10 14 20 31 13 33 39 16 12 7 10 4 4 4 6 8 11 15 13 15 9 11 19
17 19 20 20 21 21 22 23 22 21 22 30 33 32 21 3 15 14 14 5 3 2 1 7 9 12 29 29 18 29 43 12 12 13 12 3 5 8 9 10 11 12 14 18 14 4 3
17 18 19 21 21 22 23 23 23 20 18 23 34 35 25 6 7 13 14 6 2 3 1 8 6 10 19 22 11 26 32 12 13 15 13 7 9 13 9 10 10 13 13 18 13 5 4
17 18 19 20 22 23 24 24 24 21 17 20 28 33 24 10 3 12 2 6 1 1 1 17 16 9 18 21 11 24 32 7 10 9 10 6 16 11 14 6 3 10 10 16 15 4 3
17 19 20 21 22 23 24 24 23 22 17 16 24 28 21 19 3 5 11 2 1 3 8 22 9 9 23 15 13 24 32 7 9 12 5 8 18 15 15 8 9 7 15 14 16 12 3
17 18 19 21 22 24 24 25 24 23 15 13 20 26 29 15 10 14 8 2 2 1 6 9 11 21 24 20 12 14 22 19 3 6 8 5 8 6 13 15 5 14 7 10 12 7 6
18 19 20 21 22 24 25 26 26 24 16 11 8 23 27 19 11 20 4 2 1 9 12 15 12 17 18 20 15 19 23 26 19 11 14 13 16 10 25 11 7 19 6 6 8 6 5
18 19 21 22 22 24 26 27 28 26 19 10 5 18 25 27 27 19 3 3 10 2 5 9 11 17 10 19 12 18 14 20 19 17 8 10 11 22 21 7 11 9 6 3 8 9 7
18 19 21 22 24 26 27 29 30 27 21 9 3 8 19 28 25 17 1 8 4 2 6 10 12 7 11 17 11 14 17 19 14 20 9 8 7 14 20 6 16 8 5 4 4 3 8
18 20 22 23 24 26 28 29 30 28 23 10 2 3 13 20 18 9 6 8 1 2 5 4 10 5 7 16 14 17 18 13 16 20 12 10 5 13 13 11 18 8 7 0 2 4 4
19 20 22 23 24 25 27 29 31 30 24 10 3 2 17 13 8 7 5 5 1 2 2 2 4 5 6 7 8 8 10 6 17 20 10 5 2 7 6 17 16 12 5 4 3 4 2
18 19 21 23 24 25 27 29 31 30 25 8 3 2 19 8 6 3 4 2 2 2 1 1 2 3 4 6 6 5 7 4 15 18 11 7 3 4 4 2 14 18 11 3 4 4 4
17 18 20 24 25 25 26 28 29 28 23 4 2 2 9 8 5 4 1 1 2 3 3 3 2 2 2 4 5 3 5 6 12 14 13 7 5 6 1 1 14 11 21 11 2 1 9
16 17 18 24 25 25 26 26 27 26 18 4 1 2 4 5 2 2 2 3 4 2 3 2 3 2 6 3 4 6 7 5 14 12 16 2 4 6 6 3 7 14 22 19 9 6 6
14 15 17 21 24 25 26 26 26 25 15 4 4 2 2 3 3 3 1 2 4 5 2 2 3 2 3 4 4 3 4 9 5 12 8 5 8 5 5 6 1 16 16 17 17 11 5
13 14 15 18 23 23 25 27 24 24 11 8 2 0 1 2 0 1 0 1 2 3 2 1 3 9 3 4 3 5 2 1 3 10 7 8 5 3 2 6 2 4 16 12 10 9 5
12 13 13 15 20 21 21 24 26 25 14 6 3 2 1 1 1 2 1 1 2 1 5 6 5 4 3 6 8 11 10 11 9 7 6 8 7 5 2 8 2 0 9 8 4 5 5
11 11 10 12 16 19 17 19 23 26 24 8 3 2 1 1 2 3 3 3 4 5 3 2 2 3 1 6 7 1 3 6 6 6 4 6 3 2 3 3 2 3 2 5 6 2 5
10 11 9 10 11 13 14 14 16 19 20 17 9 1 1 3 3 4 4 5 3 2 4 4 3 3 9 5 2 3 2 3 1 2 3 1 1 3 4 2 1 1 1 3 2 1 6
9 10 10 9 8 9 11 11 11 14 15 11 12 7 1 1 4 1 2 2 2 2 2 4 1 4 2 2 3 4 3 3 3 4 3 3 2 1 2 3 2 3 2 3 3 2 2
11 11 10 8 8 7 9 9 8 11 13 11 4 8 1 2 2 4 3 2 3 1 3 2 3 1 1 3 3 2 2 1 3 4 4 3 2 2 1 3 5 2 4 5 3 3 2
13 11 12 9 9 7 8 7 7 7 11 11 8 3 3 2 4 7 6 4 3 2 2 1 2 1 1 2 1 1 2 1 3 3 2 2 2 1 1 3 3 6 6 3 2 0 1
19 13 12 11 11 10 7 7 6 6 8 10 4 8 7 5 4 5 9 12 8 6 3 2 1 1 1 2 1 1 3 2 2 3 3 3 4 2 6 3 2 4 4 1 3 3 3
Wind_Direction
37 34 29 25 23 22 20 18 18 15 13 10 6 2 1 3 6 12 14 16 35 40 39 29 3 355 13 40 358 333 335 352 351 346 317 303 287 257 271 267 257 241 242 258 252 249 259
35 33 28 25 23 21 19 19 19 16 12 11 7 2 360 4 8 13 19 18 17 13 25 6 342 324 58 350 346 340 324 340 340 332 312 286 261 263 270 266 270 266 268 238 244 277 227
34 32 28 24 22 21 20 21 22 19 14 11 7 3 1 5 6 20 40 32 34 22 44 17 10 83 73 13 339 332 330 329 326 315 297 274 250 247 200 267 307 326 257 259 254 239 255
31 30 28 24 21 20 19 21 21 18 17 15 7 3 3 12 13 29 92 72 57 36 64 31 22 51 55 341 342 358 344 325 322 314 276 265 230 243 238 260 280 279 266 238 219 248 211
29 28 27 24 21 19 18 17 18 17 16 13 8 6 5 12 17 352 247 143 42 41 21 21 24 14 18 338 348 346 346 328 318 320 303 245 152 209 210 237 278 195 258 227 239 231 215
26 24 25 24 20 18 16 13 13 11 6 6 8 10 8 17 17 358 79 187 180 25 26 77 20 359 350 345 333 336 347 338 334 328 252 182 202 229 221 232 244 303 238 259 227 210 219
24 20 19 21 20 17 14 13 10 6 9 7 10 12 7 24 19 16 103 148 283 128 38 58 3 10 342 343 343 356 354 354 359 24 7 27 213 227 337 304 292 291 301 289 283 229 229
26 20 15 15 17 16 15 14 11 9 13 16 13 11 7 16 19 40 60 56 42 13 120 28 8 349 354 349 349 4 359 14 360 12 7 88 62 349 308 275 265 259 264 274 277 223 18
28 23 16 10 11 15 16 15 11 5 5 3 11 11 14 28 32 32 58 22 49 141 330 21 358 346 354 342 349 0 360 339 1 8 12 43 2 322 316 267 241 243 241 249 232 82 150
24 23 18 12 9 10 12 14 11 6 4 6 10 12 19 23 77 351 70 353 162 298 99 10 358 15 354 334 1 357 2 3 16 346 351 29 349 328 335 237 280 252 228 227 217 224 239
23 21 18 14 10 7 8 10 10 7 2 5 11 14 19 42 26 22 314 336 238 232 17 337 335 311 340 19 326 354 6 354 356 336 337 1 345 339 357 333 321 261 319 200 185 184 215
20 20 18 15 10 9 5 8 9 8 3 6 16 15 23 18 21 349 330 288 207 246 16 336 327 336 349 2 3 355 10 15 1 332 341 327 303 2 346 301 303 323 254 206 174 155 226
15 18 18 14 10 7 6 4 7 7 4 4 6 16 24 25 340 356 354 242 20 44 343 337 328 333 333 349 355 3 4 23 27 354 7 329 26 9 6 358 333 347 188 151 186 190 221
14 15 16 15 10 8 7 4 5 5 3 359 351 12 19 18 0 357 9 66 64 11 307 318 324 322 352 3 345 353 3 22 26 9 323 351 6 7 9 10 320 310 348 29 165 171 156
17 15 16 14 11 9 7 5 5 5 2 353 352 23 13 7 6 10 106 38 42 328 317 318 325 351 352 359 346 356 14 18 12 10 4 344 344 344 10 13 6 344 28 351 300 20 149
16 14 16 13 12 10 6 4 3 5 1 1 13 27 12 3 11 48 54 99 142 268 320 323 358 2 328 335 346 360 6 11 359 6 354 357 303 7 8 12 21 31 339 133 334 146 113
18 13 14 13 12 10 7 4 3 4 3 6 53 61 353 5 31 45 54 75 219 255 342 324 336 305 301 316 329 330 338 329 7 350 348 335 330 343 345 26 9 10 14 347 283 341 39
18 15 13 14 12 11 8 5 3 3 7 23 61 51 350 25 43 36 43 3 327 320 293 305 265 278 287 309 307 314 326 306 357 351 0 358 307 317 35 309 30 29 7 342 328 30 48
16 12 14 15 12 11 10 7 4 4 9 17 60 347 359 30 51 38 34 318 278 308 325 347 306 335 285 288 320 277 311 305 359 2 7 329 17 346 68 189 15 19 17 18 280 259 26
14 14 8 14 12 11 12 10 6 3 8 52 83 13 43 56 64 74 11 5 328 255 276 302 280 312 321 272 223 298 308 305 345 356 3 35 32 12 60 4 345 11 14 18 35 54 52
8 11 12 13 13 13 14 14 10 4 8 60 17 74 35 13 54 91 177 331 336 357 242 244 236 273 310 298 302 268 316 315 330 2 16 48 26 354 300 334 186 36 23 23 40 25 38
2 7 12 11 10 16 16 19 18 13 14 65 49 91 71 99 166 261 5 195 312 314 240 281 246 333 183 222 237 293 330 291 332 330 14 1 359 346 266 350 226 27 23 17 28 14 25
352 360 9 9 9 15 19 20 27 30 31 76 64 94 217 111 182 270 188 212 240 291 219 242 283 305 233 233 238 269 268 270 275 312 326 357 340 358 8 348 217 246 4 358 352 13 321
340 347 354 3 9 11 19 18 26 32 37 67 66 98 97 271 241 235 187 208 237 225 257 264 206 214 7 311 283 207 227 242 252 254 257 313 345 329 319 323 56 34 290 304 302 238 341
326 331 337 342 358 9 17 16 11 15 25 44 42 40 113 281 261 249 227 231 273 242 241 254 220 251 328 306 306 305 196 209 176 221 186 195 261 329 343 330 346 238 332 324 336 210 332
303 317 326 325 334 356 9 9 6 360 7 21 41 27 106 181 222 242 246 194 287 267 237 238 245 332 325 320 356 14 345 318 315 334 139 133 131 311 336 307 285 109 166 191 178 180 300
284 297 309 307 316 334 353 1 359 354 355 1 14 23 66 288 208 168 221 245 133 126 258 292 340 291 298 15 12 342 310 3 293 297 337 317 354 354 308 279 278 206 156 161 277 26 153
257 276 290 292 295 303 332 347 350 353 340 349 316 295 3 281 272 201 189 161 148 207 238 128 255 156 5 45 318 38 267 3 269 257 246 265 287 258 156 262 285 149 147 222 54 199 195
266 254 268 283 277 285 298 331 339 329 332 325 300 320 282 232 274 229 234 239 224 199 150 175 333 196 186 115 179 131 238 207 285 279 197 245 219 282 210 258 75 196 259 191 173 249 216